Regional Weather Roundup
Issued by NWS State College, PA

Home | Current Version | Previous Version | Text Only | Print | Product List | Glossary Off
Versions: 1 2 3 4 5 6 7 8 9 10 11 12 13 14 15 16 17 18 19 20 21 22 23 24 25 26 27 28 29 30 31 32 33 34 35 36 37 38 39 40 41 42 43 44 45 46 47 48 49 50

000
ASUS41 KCTP 062203
RWRCTP

REGIONAL WEATHER ROUNDUP
NATIONAL WEATHER SERVICE STATE COLLEGE PA
600 PM EDT WED MAY 06 2015

Note: "fair" indicates few or no clouds below 12,000 feet with no
significant weather and/or obstructions to visibility.

* = STATION THAT DOES NOT REPORT PRECIPITATION /E.G. RAIN...SNOW...ETC/
    THUNDER OR FOG.

PAZ002>004-007>009-013>016-020>023-029>032-062300-
WESTERN PENNSYLVANIA

CITY           SKY/WX    TMP DP  RH WIND       PRES   REMARKS
ERIE           SUNNY     66  56  70 N7        30.18F
MEADVILLE      PTSUNNY   71  56  58 N5        30.18S
FRANKLIN*      SUNNY     73  55  53 N7        30.19R
NEW CASTLE     FAIR      79  62  55 N8        30.15S
BEAVER COUNTY  SUNNY     75  57  53 NW5       30.15S
BUTLER*        MOSUNNY   75  59  57 W3        30.16S
PITTSBURGH INT PTSUNNY   82  54  37 NW13      30.13S
PITTSBURGH     SUNNY     81  49  32 N13G20    30.12S
INDIANA*       MOSUNNY   72  64  78 E10       30.20S
LATROBE        NOT AVBL
WASHINGTON CO* SUNNY     81  54  39 NW5       30.16R
$$

PAZ004>006-010>012-017>019-024>028-033>037-041-042-045-046-049>053-062300-
CENTRAL PENNSYLVANIA

CITY           SKY/WX    TMP DP  RH WIND       PRES   REMARKS
BRADFORD       CLOUDY    60  55  83 SE3       30.22S
DUBOIS         PTSUNNY   71  58  63 E8        30.19S
CLEARFIELD     CLOUDY    63  57  81 NE8       30.22R
JOHNSTOWN      LGT RAIN  59  56  89 E6        30.20R FOG
ALTOONA        LGT RAIN  65  61  87 CALM      30.20F
STATE COLLEGE  CLOUDY    61  57  88 NE8       30.22S HAZE
WILLIAMSPORT   CLOUDY    62  54  74 E3        30.22F
SELINSGROVE    CLOUDY    60  54  80 NE5       30.24S
FT INDIANTOWN  CLOUDY    63  51  66 NE5       30.22S
CAPITAL CITY   PTSUNNY   67  51  56 NE10      30.20S
HARRISBURG     CLOUDY    68  51  54 NE8       30.19S
YORK           PTSUNNY   73  55  53 NE9       30.17S
$$

PAZ038>040-043-044-047-048-054-055-060>062-067>071-062300-
EASTERN PENNSYLVANIA

CITY           SKY/WX    TMP DP  RH WIND       PRES   REMARKS
SCRANTON       CLOUDY    68  47  46 CALM      30.22F
MOUNT POCONO   CLOUDY    61  47  59 E5        30.25S
ALLENTOWN      PTSUNNY   67  46  47 SE6       30.23F
QUAKERTOWN*    MOCLDY    63  48  59 E5        30.24F
READING        CLOUDY    63  50  62 NE9       30.21S
LANCASTER      CLOUDY    65  52  62 NE12      30.20S
COATESVILLE    MOCLDY    66  48  52 NE3       30.22S
POTTSTOWN      CLOUDY    64  44  48 NE8       30.23S
BLUE BELL      CLOUDY    68  45  42 NE6       30.22S
DOYLESTOWN     CLOUDY    63  47  55 CALM      30.23S
WILLOW GROVE   NOT AVBL
NORTH PHILA    CLOUDY    69  41  36 E13       30.23S
PHILADELPHIA   LGT RAIN  70  47  43 E13       30.21R
$$



USA.gov is the U.S. government's official web portal to all federal, state and local government web resources and services.